Weather Roundup
Issued by NWS Chicago, IL

Home | Current Version | Previous Version | Text Only | Print | Product List | Glossary On
Versions: 1 2 3 4 5 6 7 8 9 10 11 12 13 14 15 16 17 18 19 20 21 22 23 24 25 26 27 28 29 30 31 32 33 34 35 36 37 38 39 40 41 42 43 44 45 46 47 48 49 50
000
NZUS59 KLOT 291310
HRRLOT

CHICAGO AREA WEATHER ROUNDUP
NATIONAL WEATHER SERVICE CHICAGO/ROMEOVILLE IL
800 AM CDT FRI AUG 29 2014

NOTE: "FAIR" INDICATES FEW OR NO CLOUDS BELOW 12,000 FEET WITH NO
SIGNIFICANT WEATHER AND/OR OBSTRUCTIONS TO VISIBILITY.

* THESE STATIONS ARE NOT UNDER NWS QUALITY CONTROL. THEY ALSO MAY NOT
  REPORT WEATHER SUCH AS PRECIPITATION OR FOG.

ILZ005-006-012>014-019>023-291400-
NORTHEAST ILLINOIS

CITY           SKY/WX    TMP DP  RH WIND       PRES   REMARKS
OHARE          CLOUDY    72  64  76 S9        29.98S
MIDWAY         CLOUDY    73  66  78 S7        29.99S
AURORA         PTSUNNY   72  68  87 SE8       29.99R FOG
LANSING*       CLOUDY    70  65  83 S8        30.01S
JOLIET*        CLOUDY    71  67  87 SE6       30.00R
WAUKEGAN       PTSUNNY   71  65  81 S7        29.98S
DUPAGE AIRPORT CLOUDY    72  68  87 SE7       29.98S
WHEELING       CLOUDY    73  66  78 S9        30.00S
KANKAKEE*      CLOUDY    71  68  90 SE7       30.01S
MORRIS*        PTSUNNY   72  71  98 S6        29.98S
LEWIS AIRPORT* CLOUDY    71  68  92 S8        29.99S
NORTHERLY IS     N/A     71  65  81 SE7         N/A
$$

WIZ051-052-058>065-066-070>072-291400-
SOUTHEAST WISCONSIN

CITY           SKY/WX    TMP DP  RH WIND       PRES   REMARKS
MILWAUKEE      PTSUNNY   72  66  81 S10       29.97S
KENOSHA*       CLOUDY    71  67  87 S7        29.99R
RACINE*        LGT RAIN  72  67  84 S12G20    29.99S
BURLINGTON     MOSUNNY   66  66  98 CALM      29.98R FOG
WAUKESHA       PTSUNNY   68  64  88 S7        29.98S
WEST BEND      PTSUNNY   68  63  83 S5        29.97S
$$

INZ001>003-010>013-019-020-291400-
NORTHWEST INDIANA

CITY           SKY/WX    TMP DP  RH WIND       PRES   REMARKS
GARY*          CLOUDY    72  64  78 SE12      30.01S
MICHIGAN CITY* NOT AVBL
RENSSELAER*    NOT AVBL
VALPARAISO     CLOUDY    68  63  84 SE6       30.05R
$$

LMZ740>746-291400-
SOUTHERN LAKE MICHIGAN

STATION/POSITION TIME  SKY/WX   TEMP WIND        PRES    VSBY
                                AIR  DIR/SP/G
                 (UTC)          (F)  (DEG/KT/KT) (MB)    (MI)
HARRISON CRIB    1300            71  170/ 19/ 21   N/A
BURNHAM HARBOR   1300            72  150/  7/ 10   N/A
CALUMET HARBOR   1300            71  140/  5/  8 1014.6F
BURNS HARBOR     NOT AVBL
MICHIGAN CITY    1300            69  130/ 15/ 19   N/A
$$

ABBREVIATIONS USED IN REMARKS
   TC - TEMPERATURE IN CELSIUS
  WCI - WIND CHILL INDEX
   HX - HEAT INDEX
  VSB - VISIBILITY
$$


USA.gov is the U.S. government's official web portal to all federal, state and local government web resources and services.